Location: *
(37.5724°S, 58.0067°E)
Time: 13:23:05
(UTC+00:00)

USA 229 DEB - Visible Passes

Search period start: 16 January 2021 00:00
Search period end: 26 January 2021 00:00
Orbit: 967 x 1246 km, 63.5° (Epoch: 01 January)

Date Brightness Start Highest point End Pass type
(mag) Time Alt. Az. Time Alt. Az. Time Alt. Az.
16 Jan 6.2 00:06:52 10° SSW 00:07:39 10° SSW 00:08:26 10° SSW visible
16 Jan 4.8 19:39:38 34° E 19:39:38 34° E 19:45:00 10° SE visible
16 Jan 4.5 21:27:04 41° W 21:29:07 50° SW 21:36:17 10° SSE visible
16 Jan 6.0 23:18:15 10° WSW 23:21:55 14° SSW 23:25:30 10° S visible
17 Jan 5.4 18:55:58 20° E 18:55:58 20° E 18:59:18 10° ESE visible
17 Jan 3.9 20:43:22 69° WNW 20:44:10 75° WSW 20:51:38 10° SSE visible
17 Jan 5.8 22:31:08 10° W 22:36:21 19° SW 22:41:25 10° S visible
18 Jan 5.9 18:12:13 10° E 18:12:13 10° E 18:12:15 10° E visible
18 Jan 3.8 19:59:37 73° ENE 19:59:37 73° ENE 20:06:49 10° SE visible
18 Jan 5.4 21:47:02 18° W 21:50:59 27° SW 21:57:06 10° SSE visible
19 Jan 4.4 19:15:49 44° E 19:15:49 44° E 19:21:47 10° SE visible
19 Jan 4.9 21:03:13 31° W 21:05:47 40° SW 21:12:39 10° SSE visible
19 Jan 6.2 22:56:37 10° SW 22:58:57 11° SSW 23:01:15 10° S visible
20 Jan 5.0 18:31:55 27° E 18:31:55 27° E 18:36:25 10° SE visible
20 Jan 4.3 20:19:19 51° W 20:20:45 59° SW 20:28:04 10° SSE visible
20 Jan 6.0 22:08:56 10° WSW 22:13:17 16° SSW 22:17:32 10° S visible
21 Jan 5.5 17:47:56 16° E 17:47:56 16° E 17:50:23 10° ESE visible
21 Jan 3.8 19:35:19 79° NW 19:35:51 87° WSW 19:43:21 10° SSE visible
21 Jan 5.7 21:22:42 12° W 21:27:49 22° SW 21:33:20 10° S visible
22 Jan 3.9 18:51:12 62° ENE 18:51:12 62° ENE 18:58:27 10° SE visible
22 Jan 5.3 20:38:34 21° W 20:42:30 32° SW 20:48:57 10° SSE visible
23 Jan 4.4 18:06:56 39° ENE 18:06:56 39° ENE 18:13:19 10° SE visible
23 Jan 4.7 19:54:17 32° W 19:57:22 46° SW 20:04:26 10° SSE visible
23 Jan 6.2 21:47:01 10° SW 21:50:17 13° SSW 21:53:30 10° S visible
24 Jan 4.9 17:22:25 24° ENE 17:22:25 24° ENE 17:27:44 10° ESE visible
24 Jan 4.1 19:09:45 44° WNW 19:12:24 69° SW 19:19:48 10° SSE visible
24 Jan 6.0 20:59:45 10° WSW 21:04:41 18° SW 21:09:30 10° S visible
25 Jan 5.4 16:37:33 14° ENE 16:37:34 14° ENE 16:41:09 10° ESE visible
25 Jan 3.8 18:24:50 45° NNW 18:27:33 80° ENE 18:35:02 10° SE visible
25 Jan 5.6 20:13:08 10° W 20:19:17 26° SW 20:25:13 10° SSE visible
